Sturgeon Bay, WI

1:57 AM CDT on October 22, 2019 (GMT -0500)
Door County Cherryland

Weather History for KSUE - August, 2019

Change the Weather History Date:

Sunday, August 25, 2019

  Actual Average Record
Temperature  
Mean Temperature 64 °F -  
Max Temperature 71 °F 76 °F 93 °F (1925)
Min Temperature 57 °F 56 °F 39 °F (1934)
Degree Days  
Heating Degree Days 1    
Growing Degree Days 14 (Base 50)    
Moisture  
Dew Point 57 °F    
Average Humidity 79    
Maximum Humidity 93    
Minimum Humidity 61    
Precipitation  
Precipitation 0.00 in - - ()
Sea Level Pressure  
Sea Level Pressure 30.15 in    
Wind  
Wind Speed 6 mph (SE)    
Max Wind Speed 13 mph    
Max Gust Speed 18 mph    
Visibility 10 miles    
Events      
Averages and records for this station are not official NWS values.
T = Trace of Precipitation, MM = Missing Value Source: NWS Daily Summary

Daily Weather History Graph

Daily Weather History Graph

Search for Another Location

Airport or City:

Astronomy

Aug. 25, 2019 Rise Set
Actual Time 6:03 AM CDT 7:39 PM CDT
Civil Twilight 5:32 AM CDT 8:10 PM CDT
Nautical Twilight 4:55 AM CDT 8:47 PM CDT
Astronomical Twilight 4:14 AM CDT 9:27 PM CDT
Moon 12:30 AM CDT (8/25) 4:08 PM CDT (8/25)
Length of Visible Light 14h 37m
Length of Day
13h 36m
Waning Crescent, 29% of the Moon is Illuminated
Aug 25
Waning Crescent
Aug 30
New
Sep 5
First Quarter
Sep 13
Full
Sep 21
Last Quarter

Hourly Weather History & Observations

Time (CDT) Temp. Dew Point Humidity Pressure Visibility Wind Dir Wind Speed Gust Speed Precip Events Conditions
12:56 AM 60.1 °F 55.0 °F 83% 30.24 in 10.0 mi East 3.5 mph - N/A   Clear
1:56 AM 57.0 °F 55.0 °F 93% 30.23 in 10.0 mi East 3.5 mph - N/A   Clear
2:56 AM 60.1 °F 57.0 °F 90% 30.21 in 10.0 mi SE 6.9 mph - N/A   Clear
3:56 AM 60.1 °F 57.0 °F 90% 30.21 in 10.0 mi SE 4.6 mph - N/A   Clear
4:56 AM 60.1 °F 57.0 °F 90% 30.22 in 10.0 mi SSE 4.6 mph - N/A   Clear
5:56 AM 59.0 °F 57.0 °F 93% 30.22 in 10.0 mi SE 4.6 mph - N/A   Clear
6:56 AM 59.0 °F 57.0 °F 93% 30.22 in 10.0 mi ESE 4.6 mph - N/A   Clear
7:56 AM 64.9 °F 60.1 °F 84% 30.22 in 10.0 mi SSE 8.1 mph - N/A   Clear
8:56 AM 66.0 °F 61.0 °F 84% 30.21 in 10.0 mi SSE 8.1 mph - N/A   Scattered Clouds
9:56 AM 68.0 °F 60.1 °F 76% 30.20 in 10.0 mi SE 10.4 mph - N/A   Mostly Cloudy
10:56 AM 69.1 °F 57.0 °F 65% 30.19 in 10.0 mi SE 10.4 mph - N/A   Scattered Clouds
11:56 AM 69.1 °F 55.0 °F 61% 30.18 in 10.0 mi SE 12.7 mph - N/A   Clear
12:56 PM 68.0 °F 57.0 °F 68% 30.18 in 10.0 mi SE 12.7 mph - N/A   Partly Cloudy
1:56 PM 71.1 °F 57.9 °F 63% 30.15 in 10.0 mi SSE 12.7 mph 18.4 mph N/A   Mostly Cloudy
2:56 PM 70.0 °F 55.9 °F 61% 30.13 in 10.0 mi ESE 11.5 mph 16.1 mph N/A   Partly Cloudy
3:56 PM 70.0 °F 57.0 °F 63% 30.11 in 10.0 mi South 11.5 mph - N/A   Clear
4:56 PM 70.0 °F 57.9 °F 65% 30.09 in 10.0 mi SE 8.1 mph - N/A   Clear
5:56 PM 69.1 °F 57.9 °F 68% 30.07 in 10.0 mi East 8.1 mph - N/A   Partly Cloudy
6:56 PM 66.9 °F 57.9 °F 73% 30.06 in 10.0 mi ESE 4.6 mph - N/A   Clear
7:56 PM 64.9 °F 57.9 °F 78% 30.06 in 10.0 mi East 3.5 mph - N/A   Mostly Cloudy
8:56 PM 64.9 °F 57.9 °F 78% 30.06 in 10.0 mi East 3.5 mph - N/A   Mostly Cloudy
9:56 PM 61.0 °F 57.9 °F 90% 30.05 in 10.0 mi Calm Calm - N/A   Scattered Clouds
10:56 PM 61.0 °F 57.9 °F 90% 30.05 in 10.0 mi Calm Calm - N/A   Mostly Cloudy
11:56 PM 60.1 °F 57.9 °F 93% 30.03 in 10.0 mi ENE 4.6 mph - N/A   Mostly Cloudy